This demonstration page uses our WeatherBlox Daily Observations layout. Learn more.

Hourly Observations for December 9, 2016

Temp ( °F °C ) Dew Point ( °F °C ) Humidity (%) Winds ( mph kmh ) Pressure ( in mb ) Visibility ( mi km ) Precip ( " mm )
12:54 am 00:54 Clear 8 -13.3 3 -16.1 80 80 Calm 30.73 1041 10 16.0934 0 0
1:54 am 01:54 Clear 7 -13.9 2 -16.7 80 80 Calm 30.72 1040 10 16.0934 0 0
2:54 am 02:54 Clear 5 -15 1 -17.2 83 83 Calm 30.72 1040 10 16.0934 0 0
3:54 am 03:54 Clear 4 -15.6 0 -17.8 83 83 NNE 3 6 30.71 1040 10 16.0934 0 0
4:54 am 04:54 Clear 5 -15 1 -17.2 83 83 Calm 30.7 1040 10 16.0934 0 0
5:54 am 05:54 Clear 4 -15.6 0 -17.8 83 83 Calm 30.7 1040 10 16.0934 0 0
6:54 am 06:54 Clear 5 -15 1 -17.2 83 83 NNE 3 6 30.69 1039 10 16.0934 0 0
7:54 am 07:54 Partly Cloudy 9 -12.8 3 -16.1 77 77 Calm 30.69 1039 10 16.0934 0 0
8:54 am 08:54 Mostly Cloudy 12 -11.1 6 -14.4 77 77 Calm 30.7 1040 10 16.0934 0 0
9:54 am 09:54 Cloudy 14 -10 9 -12.8 80 80 Calm 30.71 1040 10 16.0934 0 0
10:54 am 10:54 Cloudy 16 -8.9 9 -12.8 74 74 E 3 6 30.68 1039 10 16.0934 0 0
11:54 am 11:54 Cloudy 19 -7.2 10 -12.2 68 68 S 5 7 30.64 1038 10 16.0934 0 0
12:54 pm 12:54 Cloudy 20 -6.7 10 -12.2 65 65 S 6 9 30.61 1037 10 16.0934 0 0
1:54 pm 13:54 Cloudy 22 -5.6 10 -12.2 60 60 SE 6 9 30.57 1035 10 16.0934 0 0
2:54 pm 14:54 Cloudy 22 -5.6 11 -11.7 63 63 ESE 7 11 30.57 1035 10 16.0934 0 0
3:54 pm 15:54 Cloudy 22 -5.6 12 -11.1 66 66 ESE 8 13 30.57 1035 10 16.0934 0 0
4:54 pm 16:54 Cloudy 22 -5.6 12 -11.1 66 66 ESE 8 13 30.55 1035 10 16.0934 0 0
5:54 pm 17:54 Cloudy 23 -5 13 -10.6 65 65 SE 8 13 30.57 1035 10 16.0934 0 0
6:54 pm 18:54 Cloudy 23 -5 13 -10.6 65 65 SSE 5 7 30.58 1036 10 16.0934 0 0
7:54 pm 19:54 Cloudy 23 -5 14 -10 68 68 ESE 6 9 30.57 1035 10 16.0934 0 0
8:54 pm 20:54 Cloudy 23 -5 14 -10 68 68 ESE 5 7 30.55 1035 10 16.0934 0 0
9:54 pm 21:54 Cloudy 23 -5 14 -10 68 68 E 6 9 30.53 1034 10 16.0934 0 0
10:54 pm 22:54 Cloudy 23 -5 14 -10 68 68 E 3 6 30.59 1036 10 16.0934 0 0
11:54 pm 23:54 Cloudy 23 -5 15 -9.4 72 72 E 5 7 30.53 1034 10 16.0934 0 0

Powered by AerisWeather